Orbital Elements at Epoch 2459200.5 (2020-Dec-17.0) TDB
Reference: JPL 22 (heliocentric ecliptic J2000)
Element | Value | Uncertainty (1-sigma) | Units |
e | .1093301056395886 | 3.5128e-08 | |
a | 2.385838358420624 | 1.0181e-08 | au |
q | 2.124994398655515 | 8.0736e-08 | au |
i | 3.364829915175425 | 5.1093e-06 | deg |
node | 329.9761672179723 | 5.4493e-05 | deg |
peri | 304.3291253588941 | 5.9209e-05 | deg |
M | 90.59061821673039 | 2.2852e-05 | deg |
tp | 2458861.780129557881 (2020-Jan-13.28012956) | 8.5163e-05 | TDB |
period | 1346.046155325199 3.69 | 8.6159e-06 2.359e-08 | d yr |
n | .2674499671320896 | 1.7119e-09 | deg/d |
Q | 2.646682318185734 | 1.1294e-08 | au |
|
| | Orbit Determination Parameters
Additional Information
|